EEST,Max TemperatureF,Mean TemperatureF,Min TemperatureF,Max Dew PointF,MeanDew PointF,Min DewpointF,Max Humidity, Mean Humidity, Min Humidity, Max Sea Level PressureIn, Mean Sea Level PressureIn, Min Sea Level PressureIn, Max VisibilityMiles, Mean VisibilityMiles, Min VisibilityMiles, Max Wind SpeedMPH, Mean Wind SpeedMPH, Max Gust SpeedMPH,PrecipitationIn, CloudCover, Events, WindDirDegrees
2013-3-1,64,54,44,43,34,27,81,48,22,30.01,29.96,29.92,12,6,6,18,12,,0.00,1,,324
2013-3-2,61,52,42,46,42,37,87,70,44,30.06,30.03,30.01,6,6,6,9,5,,0.00,2,,9
2013-3-3,66,56,47,50,43,30,94,67,20,30.01,29.77,29.62,6,6,4,16,6,,0.16,5,Rain-Thunderstorm,305
2013-3-4,67,56,46,45,39,34,87,53,22,29.95,29.82,29.70,12,6,6,18,10,,0.00,2,,310
2013-3-5,63,56,48,37,25,12,54,32,12,30.24,30.10,29.97,12,9,6,29,19,32,0.00,,,335
2013-3-6,62,51,40,37,24,14,76,37,15,30.30,30.26,30.24,6,6,6,17,11,,0.00,1,,13
2013-3-7,59,49,39,46,40,32,87,67,44,30.27,30.20,30.12,6,6,6,8,5,,0.00,5,,351
2013-3-8,62,55,48,46,43,37,82,64,37,30.12,30.00,29.94,6,6,6,12,6,,0.00,5,,324
2013-3-9,61,54,48,54,48,43,94,74,52,29.95,29.93,29.92,6,6,6,8,4,,0.00,5,Rain,61
2013-3-10,62,58,53,55,53,50,94,85,66,29.95,29.92,29.89,6,6,6,8,5,,0.02,6,Rain,58
2013-3-11,64,59,54,57,56,54,100,88,70,29.95,29.90,29.83,12,6,5,12,5,,0.04,6,Rain,85
2013-3-12,64,59,54,59,56,54,94,86,72,29.89,29.78,29.65,6,6,6,8,4,,0.02,6,Rain,348
2013-3-13,68,60,53,61,56,52,100,86,68,29.89,29.80,29.74,6,5,2,10,6,,0.00,5,,21
2013-3-14,64,58,52,57,53,50,100,85,68,29.95,29.88,29.77,6,6,6,8,5,,0.00,5,Rain,357
2013-3-15,69,61,53,61,53,48,94,75,49,29.77,29.63,29.56,6,6,2,15,7,,0.00,6,,160
2013-3-16,63,56,48,50,45,37,88,67,47,29.83,29.75,29.65,12,6,6,26,10,,0.12,4,Rain-Thunderstorm,321
2013-3-17,61,52,44,37,31,23,66,43,20,30.06,29.92,29.83,12,6,6,23,16,,0.00,2,,337
2013-3-18,63,52,42,41,30,19,71,44,15,30.09,30.07,30.04,12,6,6,20,12,,0.00,1,,352
2013-3-19,59,52,44,46,43,36,93,73,49,30.06,30.03,29.98,6,6,6,8,5,,0.00,4,Rain,327
2013-3-20,62,52,41,52,45,37,94,76,45,30.06,30.04,30.01,12,6,6,10,5,,0.00,3,,317
2013-3-21,65,56,46,52,48,45,94,79,52,30.05,29.99,29.86,6,6,6,8,4,,0.00,6,,360
2013-3-22,61,54,48,52,43,25,88,66,29,29.83,29.56,29.39,6,6,2,22,8,36,0.28,5,Rain-Thunderstorm,328
2013-3-23,62,52,41,37,30,23,61,39,17,29.98,29.79,29.65,12,6,6,26,14,,0.00,2,,338
2013-3-24,66,54,43,46,35,27,87,51,17,30.15,30.05,29.98,12,6,6,20,10,,0.00,1,,354
2013-3-25,63,52,41,50,44,36,82,67,51,30.15,30.09,29.98,12,7,6,8,6,,0.00,6,,340
2013-3-26,68,58,49,49,45,41,82,61,37,29.95,29.76,29.62,6,6,6,12,4,,0.00,6,,320
2013-3-27,67,58,49,57,51,45,88,75,52,29.95,29.78,29.65,6,6,6,10,6,,0.00,4,,40
2013-3-28,66,58,51,57,54,50,100,85,64,30.04,29.97,29.91,6,6,4,12,5,,0.04,5,Rain,356
2013-3-29,68,58,49,57,52,46,94,75,52,30.06,30.04,29.98,12,6,6,9,5,,0.00,2,,351
2013-3-30,70,60,50,59,53,48,94,80,60,30.09,30.03,29.98,6,6,6,6,3,,0.00,6,,331
2013-3-31,78,66,54,55,51,46,88,64,32,29.98,29.90,29.83,6,6,6,8,6,,0.00,7,,337
2013-4-1,,,,,,,,,,,,,,,,,,,,,,